This is the latest recevied weather packets stored in our database for station/object DW9280. If no packets are shown the sender has not sent any weather packets the latest 10 day(s).
| Time | Temp. | Humidity | Pressure | Rain* | Wind** | Luminosity | Snow |
|---|---|---|---|---|---|---|---|
| 1777565673 | 20.56° C | 25% | 1025.8 hPa | 0 mm | - | 348 W/m² | - |
| 1777565372 | 20.56° C | 25% | 1025.8 hPa | 0 mm | - | 360 W/m² | - |
| 1777565073 | 20.56° C | 25% | 1025.8 hPa | 0 mm | - | 373 W/m² | - |
| 1777564771 | 20.56° C | 25% | 1025.9 hPa | 0 mm | - | 387 W/m² | - |
| 1777564470 | 21.11° C | 26% | 1025.8 hPa | 0 mm | - | 401 W/m² | - |
| 1777564167 | 21.11° C | 26% | 1025.8 hPa | 0 mm | - | 413 W/m² | - |
| 1777563864 | 21.11° C | 25% | 1025.8 hPa | 0 mm | - | 427 W/m² | - |
| 1777563562 | 20.56° C | 24% | 1025.9 hPa | 0 mm | - | 436 W/m² | - |
| 1777563262 | 21.11° C | 25% | 1025.9 hPa | 0 mm | - | 448 W/m² | - |
| 1777562961 | 21.11° C | 25% | 1025.9 hPa | 0 mm | - | 462 W/m² | - |
| 1777562658 | 20.56° C | 24% | 1025.9 hPa | 0 mm | - | 475 W/m² | - |
| 1777562358 | 21.11° C | 25% | 1025.9 hPa | 0 mm | - | 485 W/m² | - |
| 1777562055 | 21.11° C | 24% | 1026 hPa | 0 mm | - | 499 W/m² | - |
| 1777561876 | 21.11° C | 24% | 1025.9 hPa | 0 mm | - | 510 W/m² | - |
| 1777561450 | 21.11° C | 24% | 1026 hPa | 0 mm | - | 522 W/m² | - |
| 1777561150 | 20.56° C | 24% | 1026 hPa | 0 mm | - | 536 W/m² | - |
| 1777560850 | 20.56° C | 24% | 1026.2 hPa | 0 mm | - | 545 W/m² | - |
| 1777560549 | 20.56° C | 24% | 1026.1 hPa | 0 mm | - | 561 W/m² | - |
| 1777560250 | 21.11° C | 24% | 1026.3 hPa | 0 mm | - | 577 W/m² | - |
| 1777560113 | 21.11° C | 24% | 1026.3 hPa | 0 mm | - | 582 W/m² | - |
| 1777559775 | 21.11° C | 25% | 1026.2 hPa | 0 mm | - | 594 W/m² | - |
| 1777559348 | 21.11° C | 24% | 1026.3 hPa | 0 mm | - | 601 W/m² | - |
| 1777559047 | 20.56° C | 25% | 1026.3 hPa | 0 mm | - | 608 W/m² | - |
| 1777558750 | 20.56° C | 24% | 1026.3 hPa | 0 mm | - | 621 W/m² | - |
| 1777558449 | 20.56° C | 24% | 1026.4 hPa | 0 mm | - | 628 W/m² | - |
* Rain latest hour (hover to see other rain measurements)
** Current wind speed in m/s (hover to see current wind gust speed)